Location: Seasalter
(51.3333°N, 1.0167°E)
Time: 05:29:29
(UTC+00:00)

Resurs 1-4 Rocket - Pass Details

Date: 26 September 2023
Orbit: 800 x 812 km, 98.7° (Epoch: 29 November)

Event Time Altitude Azimuth Distance (km) Brightness Sun altitude
Rises 01:37:05 0° 17° (NNE) 3,323 6.2 -34.7°
Reaches altitude 10° 01:39:28 10° 21° (NNE) 2,388 5.3 -34.5°
Enters shadow 01:42:57 40° 39° (NE) 1,165 3.2 -34.2°
